This is the latest recevied weather packets stored in our database for station/object SR5MRF. If no packets are shown the sender has not sent any weather packets the latest 10 day(s).
| Time | Temp. | Humidity | Pressure | Rain* | Wind** | Luminosity | Snow |
|---|---|---|---|---|---|---|---|
| 1777794526 | 28.33° C | 30% | 1015.9 hPa | 0 mm | - | - | - |
| 1777794405 | 28.33° C | 30% | 1015.9 hPa | 0 mm | - | - | - |
| 1777793985 | 27.78° C | 31% | 1016.2 hPa | 0 mm | - | - | - |
| 1777793565 | 27.22° C | 31% | 1016.2 hPa | 0 mm | - | - | - |
| 1777793145 | 27.22° C | 31% | 1016.1 hPa | 0 mm | - | - | - |
| 1777792725 | 27.22° C | 31% | 1016.2 hPa | 0 mm | - | - | - |
| 1777792305 | 27.22° C | 32% | 1016.2 hPa | 0 mm | - | - | - |
| 1777792126 | 27.22° C | 32% | 1016.3 hPa | 0 mm | - | - | - |
| 1777791885 | 26.67° C | 34% | 1016.2 hPa | 0 mm | - | - | - |
| 1777791526 | 26.11° C | 35% | 1016.3 hPa | 0 mm | - | - | - |
| 1777791465 | 26.11° C | 35% | 1016.3 hPa | 0 mm | - | - | - |
| 1777791045 | 25.56° C | 36% | 1016.1 hPa | 0 mm | - | - | - |
| 1777790926 | 25.56° C | 36% | 1016.3 hPa | 0 mm | - | - | - |
| 1777790625 | 25° C | 37% | 1016.3 hPa | 0 mm | - | - | - |
| 1777790326 | 24.44° C | 38% | 1016 hPa | 0 mm | - | - | - |
| 1777790205 | 24.44° C | 38% | 1016.2 hPa | 0 mm | - | - | - |
| 1777789785 | 23.33° C | 40% | 1016.1 hPa | 0 mm | - | - | - |
| 1777789726 | 23.33° C | 40% | 1016.2 hPa | 0 mm | - | - | - |
| 1777789365 | 22.78° C | 42% | 1016.2 hPa | 0 mm | - | - | - |
| 1777789126 | 22.22° C | 42% | 1016.2 hPa | 0 mm | - | - | - |
| 1777788945 | 22.22° C | 43% | 1016.3 hPa | 0 mm | - | - | - |
| 1777788525 | 20.56° C | 45% | 1016.3 hPa | 0 mm | - | - | - |
| 1777788105 | 20° C | 48% | 1016.4 hPa | 0 mm | - | - | - |
| 1777787926 | 19.44° C | 48% | 1016.4 hPa | 0 mm | - | - | - |
| 1777787685 | 18.89° C | 50% | 1016.4 hPa | 0 mm | - | - | - |
* Rain latest hour (hover to see other rain measurements)
** Current wind speed in m/s (hover to see current wind gust speed)